[[{"header":{"parameterUnit":"m.s-1","parameterCategory":2,"la1":30.2991,"la2":30.254,"lo1":-89.0895,"lo2":-89.0444,"dy":0.0017,"dx":0.0017,"nx":28,"ny":28,"refTime":"2023-11-11T09:00:00:Z","depth":"0","parameterNumber":2,"parameterNumberName":"U-component_of_CURRENTS"},"data":[0,0,0,0,0,0,0,0,0,0,0,0,0,0,0,0,0,0,0,0,0,0,0,0,0,0,0,0,0,0,0,0,0,0,0,0,0,0,0,0,0,0,0,0,0,0,0,0,0,0,0,0,0,0,0,0,0,0,0.2407,0.2407,0,0.2417,0.2417,0.2417,0.2402,0.2402,0.2401,0.2401,0.2347,0.2345,0.2344,0,0,0,0,0,0,0,0,0,0,0,0,0,0.2343,0.2344,0.2407,0.2407,0.2407,0.2417,0.2417,0.2417,0.2402,0.2402,0.2401,0.2401,0.2347,0.2346,0.2344,0,0,0,0,0,0,0,0,0,0,0,0,0,0.2362,0.2345,0.2407,0.2403,0.2402,0.2417,0.2417,0.2417,0.2402,0.2402,0.2401,0.2401,0.2347,0.2346,0.2344,0.2343,0,0,0.2339,0.2338,0,0,0,0,0,0,0,0,0.2361,0.2364,0.2403,0.2403,0.2403,0.2409,0.2374,0.239,0.2402,0.24,0.2401,0.2401,0.2363,0.236,0.2361,0.2341,0.2339,0.2339,0.2338,0.2337,0.2336,0,0,0,0,0,0,0,0.236,0.2363,0.2409,0.2403,0.2403,0.239,0.2392,0.2377,0.2382,0.24,0.24,0.2404,0.2362,0.2363,0.236,0.2338,0.2339,0.2337,0.2336,0.2335,0.2335,0.2336,0,0,0,0,0,0,0.2365,0.2362,0.2408,0.2409,0.2382,0.2392,0.2394,0.2406,0.2383,0.238,0.2405,0.2404,0.2366,0.2362,0.2358,0.2373,0.2337,0.2335,0.2334,0.2334,0.2335,0.2337,0,0,0,0,0,0,0.2364,0.2369,0.2408,0.2387,0.2391,0.2394,0.2407,0.2407,0.2409,0.2388,0.2383,0.2408,0.2366,0.236,0.2353,0.237,0.2334,0.2333,0.2333,0.2335,0.2336,0.2392,0,0,0,0,0,0,0.2362,0.2369,0.2378,0.2388,0.2393,0.2426,0.2408,0.2407,0.2413,0.2412,0.2389,0.2383,0.2365,0.2356,0.2351,0.2367,0.2332,0.2332,0.2334,0.2336,0.2389,0.2395,0.2401,0,0,0,0,0,0.236,0.2377,0.2379,0.2384,0.2406,0.2427,0.2429,0.2426,0.2414,0.2424,0.2406,0.2384,0.2365,0.2355,0.2349,0.2365,0.2331,0.2333,0.2335,0.2386,0.2394,0.2401,0,0,0,0,0,0,0.2352,0.2378,0.238,0.2404,0.2419,0.2426,0.2435,0.2431,0.2425,0.2421,0.2393,0.2387,0.2387,0.237,0.236,0.2372,0.2346,0.2347,0.2387,0.2394,0.24,0.2414,0.233,0,0,0,0,0,0.2357,0.2379,0.2397,0.2417,0.2426,0.243,0.2437,0.2439,0.2437,0.2434,0.2419,0.2404,0.2394,0.2388,0.2377,0.2381,0.2401,0.239,0.2396,0.2401,0.241,0.2453,0.2464,0.2344,0.2344,0.2344,0,0,0.2357,0.2377,0.2387,0.2417,0.2426,0.2442,0.2433,0.2452,0.2461,0.2428,0.2433,0.2422,0.2399,0.2406,0.2406,0.2393,0.2452,0.2404,0.2408,0.2415,0.2456,0.2468,0.2479,0.2346,0.2345,0.2345,0,0,0.2367,0.239,0.2407,0.2425,0.2449,0.2457,0.2464,0.2478,0.2482,0.2488,0.2469,0.2472,0.2452,0.2451,0.2442,0.2475,0.2481,0.2469,0.2511,0.2553,0.2563,0.2573,0.2643,0.2659,0.2474,0.2474,0.2474,0,0.2362,0.2391,0.2414,0.2434,0.245,0.2464,0.2481,0.2491,0.25,0.251,0.2496,0.2497,0.2476,0.2492,0.2503,0.2489,0.2524,0.2484,0.2562,0.2571,0.258,0.265,0.2666,0.2477,0.2477,0.2476,0.2476,0,0.2382,0.2405,0.2419,0.2451,0.2472,0.2495,0.2516,0.2537,0.2541,0.2549,0.2571,0.2558,0.2563,0.2558,0.2535,0.2586,0.2598,0.2565,0.2546,0.2596,0.2666,0.2682,0.2481,0.248,0.2479,0.2479,0,0,0.2362,0.242,0.2421,0.2443,0.2485,0.2505,0.2537,0.2571,0.2597,0.2608,0.2645,0.2634,0.2641,0.2634,0.2621,0.2652,0.2746,0.2639,0.264,0.2714,0.2873,0.2881,0.2899,0.2729,0.2731,0.2733,0.2909,0,0.2364,0.2404,0.2434,0.2471,0.2495,0.2532,0.2561,0.2597,0.2625,0.2668,0.2677,0.2701,0.2666,0.2682,0.2709,0.2732,0.2786,0.2704,0.2809,0.2813,0.2817,0.2915,0.2792,0.2937,0.2924,0.2927,0.2929,0,0.2362,0.2396,0.2429,0.2493,0.2506,0.2527,0.2595,0.2627,0.2691,0.2721,0.2762,0.2773,0.2828,0.2787,0.2878,0.2831,0.2864,0.2882,0.2889,0.2885,0.2849,0.2879,0.2966,0.2912,0.2953,0.2951,0.2949,0,0.233,0.2389,0.2418,0.2438,0.2508,0.2531,0.2569,0.2634,0.2674,0.2765,0.2804,0.287,0.291,0.2958,0.2996,0.2951,0.3106,0.3045,0.3094,0.3096,0.3006,0.2995,0.3051,0.3127,0.3127,0.3127,0.3126,0,0.2315,0.2336,0.2404,0.2418,0.2457,0.2517,0.2564,0.2621,0.2708,0.2756,0.2824,0.2879,0.2952,0.3034,0.3059,0.3147,0.3166,0.3138,0.3148,0.3025,0.3015,0.2971,0.2929,0.3133,0.3132,0.313,0.3129,0,0.2261,0.2306,0.2344,0.2417,0.2437,0.2463,0.2547,0.2589,0.2681,0.2753,0.2788,0.2919,0.3043,0.3124,0.3235,0.3233,0.3232,0.3331,0.3203,0.3194,0.3161,0.3126,0.3087,0.299,0.3422,0.3424,0.3425,0,0.2233,0.2248,0.2323,0.2339,0.2364,0.2415,0.2447,0.2556,0.2609,0.2759,0.2793,0.2955,0.3052,0.3256,0.3317,0.343,0.3298,0.336,0.3237,0.3183,0.3151,0.3006,0.2914,0.3157,0.3156,0.3155,0.3154,0,0.2175,0.2204,0.2233,0.2272,0.2302,0.234,0.2401,0.2444,0.2573,0.2643,0.2764,0.2864,0.3094,0.3179,0.3349,0.3377,0.3202,0.3345,0.3305,0.298,0.2807,0.2709,0.3044,0.3146,0.3146,0.3147,0.3147,0.3148,0.2117,0.2122,0.2161,0.2185,0.2223,0.2244,0.2242,0.233,0.2397,0.2488,0.2655,0.2772,0.298,0.3215,0.3237,0.3238,0.3185,0.314,0.312,0.2993,0.283,0.3177,0.3268,0.3269,0.3271,0.3272,0.3273,0,0.2021,0.204,0.2071,0.2085,0.2083,0.2138,0.2187,0.2176,0.2208,0.2379,0.2475,0.2688,0.2817,0.2979,0.3108,0.3029,0.2842,0.2947,0.2693,0.2625,0.2966,0.2883,0.2872,0.2873,0.2873,0.2873,0.2873,0.2873,0.1968,0.1952,0.1972,0.1928,0.1944,0.1902,0.1904,0.1923,0.2025,0.2145,0.2287,0.2441,0.2766,0.2958,0.2967,0.2884,0.2643,0.2529,0.2521,0.2757,0.2771,0.2785,0.2698,0.2649,0.2648,0.204,0.2035,0.2032]},{"header":{"parameterUnit":"m.s-1","parameterCategory":2,"la1":30.2991,"la2":30.254,"lo1":-89.0895,"lo2":-89.0444,"dy":0.0017,"dx":0.0017,"nx":28,"ny":28,"refTime":"2023-11-11T09:00:00:Z","depth":"0","parameterNumber":3,"parameterNumberName":"V-component_of_CURRENTS"},"data":[0,0,0,0,0,0,0,0,0,0,0,0,0,0,0,0,0,0,0,0,0,0,0,0,0,0,0,0,0,0,0,0,0,0,0,0,0,0,0,0,0,0,0,0,0,0,0,0,0,0,0,0,0,0,0,0,0,0,-0.0559,-0.0559,0,-0.0604,-0.0605,-0.0606,-0.0653,-0.0654,-0.0654,-0.0654,-0.0771,-0.0774,-0.0776,0,0,0,0,0,0,0,0,0,0,0,0,0,-0.0512,-0.0513,-0.0559,-0.0559,-0.056,-0.0604,-0.0605,-0.0606,-0.0653,-0.0654,-0.0654,-0.0654,-0.077,-0.0773,-0.0777,0,0,0,0,0,0,0,0,0,0,0,0,0,-0.0546,-0.0514,-0.0559,-0.0586,-0.0589,-0.0604,-0.0605,-0.0606,-0.0653,-0.0654,-0.0654,-0.0655,-0.0769,-0.0773,-0.0777,-0.0792,0,0,-0.079,-0.0792,0,0,0,0,0,0,0,0,-0.0544,-0.0548,-0.0582,-0.0584,-0.0587,-0.0621,-0.0631,-0.0671,-0.0653,-0.0632,-0.0654,-0.0655,-0.0725,-0.0733,-0.0744,-0.0797,-0.0802,-0.079,-0.0793,-0.0794,-0.0796,0,0,0,0,0,0,0,-0.0541,-0.0546,-0.058,-0.0582,-0.0585,-0.0595,-0.0601,-0.0639,-0.0679,-0.0634,-0.0637,-0.0636,-0.0727,-0.0739,-0.0747,-0.0804,-0.079,-0.0794,-0.0796,-0.0798,-0.087,-0.087,0,0,0,0,0,0,-0.0529,-0.0544,-0.0579,-0.0581,-0.0563,-0.0596,-0.0602,-0.0612,-0.0677,-0.0686,-0.0636,-0.0638,-0.0732,-0.0742,-0.0751,-0.076,-0.0794,-0.0798,-0.0801,-0.0871,-0.087,-0.087,0,0,0,0,0,0,-0.0528,-0.0532,-0.0577,-0.056,-0.0566,-0.0596,-0.0607,-0.0613,-0.0621,-0.0677,-0.0688,-0.0637,-0.0733,-0.0745,-0.0777,-0.0765,-0.08,-0.0804,-0.0872,-0.0871,-0.087,-0.0786,0,0,0,0,0,0,-0.0527,-0.0532,-0.0531,-0.056,-0.0567,-0.058,-0.0606,-0.0613,-0.0619,-0.0623,-0.0682,-0.0694,-0.0734,-0.0771,-0.0781,-0.0772,-0.0807,-0.0872,-0.0871,-0.087,-0.0789,-0.0782,-0.0776,0,0,0,0,0,-0.0525,-0.052,-0.0531,-0.0534,-0.0566,-0.0579,-0.0584,-0.0608,-0.0618,-0.0619,-0.0656,-0.0692,-0.0771,-0.0773,-0.0786,-0.0778,-0.0873,-0.0871,-0.087,-0.0792,-0.0784,-0.0776,0,0,0,0,0,0,-0.0493,-0.0525,-0.0537,-0.0541,-0.0555,-0.0586,-0.0584,-0.06,-0.0628,-0.0631,-0.0687,-0.0701,-0.0723,-0.0761,-0.0762,-0.0795,-0.0827,-0.0828,-0.0763,-0.0756,-0.0749,-0.0727,-0.0811,0,0,0,0,0,-0.0486,-0.0494,-0.0521,-0.052,-0.0527,-0.0554,-0.056,-0.0574,-0.0602,-0.0615,-0.0656,-0.0697,-0.0728,-0.075,-0.0785,-0.0806,-0.0828,-0.0808,-0.0801,-0.0795,-0.0785,-0.0799,-0.0793,-0.0865,-0.0865,-0.0865,0,0,-0.0467,-0.0488,-0.0488,-0.0513,-0.0528,-0.0526,-0.056,-0.0562,-0.056,-0.0624,-0.0637,-0.0676,-0.0727,-0.0747,-0.076,-0.0778,-0.0786,-0.0794,-0.0788,-0.0781,-0.0797,-0.079,-0.0784,-0.0864,-0.0865,-0.0865,0,0,-0.0428,-0.0458,-0.0447,-0.0462,-0.0478,-0.0497,-0.0494,-0.0522,-0.0538,-0.0556,-0.0594,-0.062,-0.0679,-0.0704,-0.0727,-0.0705,-0.0748,-0.072,-0.0673,-0.0687,-0.068,-0.0675,-0.069,-0.0687,-0.072,-0.072,-0.072,0,-0.0397,-0.0403,-0.0442,-0.0437,-0.044,-0.048,-0.0462,-0.0483,-0.0515,-0.0521,-0.0551,-0.0611,-0.0656,-0.0667,-0.066,-0.0689,-0.0705,-0.0698,-0.0676,-0.0672,-0.0668,-0.0685,-0.0682,-0.0716,-0.0716,-0.0717,-0.0717,0,-0.0354,-0.0358,-0.0354,-0.0365,-0.0372,-0.0367,-0.0397,-0.0405,-0.0432,-0.0454,-0.0476,-0.0535,-0.0568,-0.0587,-0.0621,-0.0613,-0.0635,-0.0662,-0.0692,-0.0655,-0.0676,-0.0675,-0.071,-0.0711,-0.0713,-0.0714,0,0,-0.0278,-0.0314,-0.0311,-0.0308,-0.0336,-0.0333,-0.0332,-0.0341,-0.0329,-0.0379,-0.0371,-0.0429,-0.0461,-0.0487,-0.0532,-0.0548,-0.0538,-0.0588,-0.0591,-0.0594,-0.0565,-0.0563,-0.0563,-0.056,-0.0559,-0.0559,-0.0589,0,-0.0226,-0.0209,-0.024,-0.0212,-0.0206,-0.0244,-0.0236,-0.025,-0.0278,-0.0285,-0.0345,-0.0363,-0.0424,-0.0436,-0.046,-0.0516,-0.0532,-0.0527,-0.0608,-0.061,-0.0606,-0.056,-0.0534,-0.0557,-0.0588,-0.0588,-0.0588,0,-0.0169,-0.017,-0.0139,-0.0145,-0.0142,-0.0128,-0.0122,-0.012,-0.0146,-0.0169,-0.0201,-0.0255,-0.0289,-0.0347,-0.0421,-0.0415,-0.0477,-0.0527,-0.053,-0.0556,-0.0606,-0.0601,-0.0554,-0.0705,-0.0587,-0.0587,-0.0587,0,-0.0101,-0.0096,-0.0072,-0.0075,-0.0084,-0.0066,-0.0064,-0.0077,-0.0062,-0.0091,-0.0086,-0.0152,-0.0173,-0.026,-0.0371,-0.0394,-0.0449,-0.0499,-0.0557,-0.0558,-0.0565,-0.0567,-0.0665,-0.0542,-0.0542,-0.0541,-0.0541,0,-0.0043,-0.0021,-0.0036,-0.0023,0.0022,-0.0001,0.0049,0.0036,0.0043,0.0078,-0.0016,0.0002,-0.015,-0.021,-0.0326,-0.0426,-0.0417,-0.0532,-0.0557,-0.0535,-0.0535,-0.0691,-0.0785,-0.0543,-0.0542,-0.0542,-0.0542,0,0.0021,0.0007,0.0038,0.0043,0.0052,0.0087,0.0122,0.0161,0.0151,0.0198,0.0194,0.0129,0.0057,-0.0096,-0.0229,-0.0351,-0.0543,-0.0502,-0.0465,-0.0486,-0.0688,-0.0778,-0.0906,-0.0979,-0.0572,-0.0572,-0.0572,0,0.0052,0.0073,0.0093,0.0124,0.013,0.0176,0.0214,0.0216,0.0266,0.0288,0.0327,0.0266,0.0258,0.0057,-0.0167,-0.0361,-0.0521,-0.0487,-0.053,-0.0679,-0.0799,-0.0873,-0.0932,-0.0511,-0.0511,-0.051,-0.051,0,0.0115,0.012,0.0144,0.0206,0.0252,0.0307,0.0367,0.0425,0.0446,0.0498,0.0573,0.0573,0.0373,0.0203,-0.0089,-0.0246,-0.0595,-0.0485,-0.0648,-0.0756,-0.0834,-0.0924,-0.0523,-0.0506,-0.0507,-0.0507,-0.0507,-0.0507,0.0169,0.0198,0.0235,0.0302,0.0359,0.0451,0.0521,0.0599,0.0705,0.0802,0.0781,0.0828,0.0523,0.0146,-0.0101,-0.0545,-0.057,-0.068,-0.0775,-0.0836,-0.0909,-0.0495,-0.0504,-0.0504,-0.0505,-0.0505,-0.0505,0,0.0248,0.0275,0.0333,0.0416,0.0505,0.0514,0.0635,0.0721,0.0872,0.0962,0.1039,0.0955,0.0579,0.016,-0.0428,-0.0763,-0.0914,-0.096,-0.1071,-0.1118,-0.075,-0.0749,-0.08,-0.0799,-0.0799,-0.0799,-0.0799,-0.0799,0.0291,0.036,0.0384,0.0537,0.0604,0.0729,0.081,0.0933,0.1034,0.1185,0.1245,0.1248,0.0958,-0.0129,-0.0901,-0.1097,-0.1339,-0.1385,-0.1529,-0.1293,-0.1275,-0.1257,-0.1279,-0.144,-0.1441,-0.1848,-0.1852,-0.1856]}],[{"header":{"parameterUnit":"m.s-1","parameterCategory":2,"la1":30.2991,"la2":30.254,"lo1":-89.0895,"lo2":-89.0444,"dy":0.0017,"dx":0.0017,"nx":28,"ny":28,"refTime":"2023-11-11T09:00:00:Z","depth":"2","parameterNumber":2,"parameterNumberName":"U-component_of_CURRENTS"},"data":[0,0,0,0,0,0,0,0,0,0,0,0,0,0,0,0,0,0,0,0,0,0,0,0,0,0,0,0,0,0,0,0,0,0,0,0,0,0,0,0,0,0,0,0,0,0,0,0,0,0,0,0,0,0,0,0,0,0,0.2207,0.2207,0,0.2246,0.2247,0.2247,0.2268,0.2268,0.2268,0.2268,0.2263,0.2263,0.2263,0,0,0,0,0,0,0,0,0,0,0,0,0,0.2136,0.2137,0.2207,0.2207,0.2208,0.2246,0.2247,0.2247,0.2268,0.2268,0.2268,0.2268,0.2263,0.2263,0.2263,0,0,0,0,0,0,0,0,0,0,0,0,0,0.2172,0.2138,0.2207,0.2222,0.2223,0.2246,0.2247,0.2247,0.2268,0.2268,0.2268,0.2268,0.2263,0.2263,0.2263,0.2265,0,0,0.2262,0.2262,0,0,0,0,0,0,0,0,0.217,0.2174,0.2219,0.2221,0.2222,0.2251,0.222,0.2251,0.2268,0.2253,0.2268,0.2268,0.2254,0.2254,0.2265,0.2265,0.2264,0.2262,0.2262,0.2262,0.2262,0,0,0,0,0,0,0,0.2167,0.2173,0.2224,0.222,0.2222,0.2221,0.2226,0.2226,0.2254,0.2254,0.2256,0.2257,0.2254,0.2265,0.2265,0.2264,0.2262,0.2262,0.2262,0.2262,0.2301,0.2302,0,0,0,0,0,0,0.216,0.2171,0.2223,0.2225,0.2193,0.2222,0.2228,0.2243,0.2255,0.2257,0.2257,0.2258,0.2265,0.2265,0.2265,0.2299,0.2262,0.2262,0.2262,0.23,0.2301,0.2302,0,0,0,0,0,0,0.2159,0.2165,0.2221,0.2196,0.2203,0.2224,0.224,0.2244,0.2262,0.2258,0.2259,0.2272,0.2265,0.2265,0.2266,0.2297,0.2262,0.2262,0.2299,0.23,0.2302,0.2347,0,0,0,0,0,0,0.2157,0.2165,0.2181,0.2197,0.2204,0.224,0.224,0.2245,0.2262,0.2264,0.227,0.2269,0.2265,0.2266,0.2266,0.2297,0.2262,0.2297,0.2299,0.2301,0.2345,0.235,0.2355,0,0,0,0,0,0.2155,0.2181,0.2182,0.2188,0.2224,0.2241,0.2245,0.2259,0.2263,0.2275,0.2273,0.227,0.2279,0.2266,0.2266,0.2298,0.2296,0.2299,0.2301,0.2342,0.2349,0.2355,0,0,0,0,0,0,0.2161,0.2186,0.2187,0.2221,0.2229,0.2244,0.2262,0.2265,0.2276,0.228,0.2272,0.2271,0.2289,0.2283,0.2269,0.2316,0.2292,0.2294,0.2323,0.233,0.2335,0.2349,0.2262,0,0,0,0,0,0.2168,0.22,0.2206,0.2236,0.2239,0.225,0.2261,0.2269,0.2276,0.2282,0.2288,0.2294,0.23,0.2304,0.2309,0.2326,0.2341,0.235,0.2355,0.236,0.2372,0.2407,0.2417,0.231,0.231,0.231,0,0,0.2169,0.2198,0.2208,0.2239,0.225,0.2263,0.2258,0.228,0.2298,0.2278,0.2311,0.2311,0.2307,0.2331,0.234,0.2329,0.2402,0.2363,0.2367,0.2376,0.2411,0.2421,0.2431,0.2312,0.2312,0.2311,0,0,0.2189,0.222,0.224,0.2254,0.2275,0.2287,0.2292,0.231,0.2325,0.2345,0.2341,0.2355,0.2368,0.2376,0.2378,0.2414,0.2428,0.2424,0.2464,0.2499,0.2508,0.2516,0.2566,0.2578,0.2428,0.2428,0.2428,0,0.2188,0.2223,0.2246,0.2268,0.2285,0.2296,0.231,0.233,0.2349,0.2368,0.2362,0.2402,0.2393,0.2424,0.2437,0.2429,0.2456,0.2438,0.2506,0.2515,0.2522,0.2571,0.2584,0.2431,0.243,0.243,0.243,0,0.2211,0.224,0.2257,0.2293,0.2314,0.2336,0.2354,0.2383,0.2405,0.2424,0.2466,0.2463,0.249,0.2492,0.2473,0.2528,0.2534,0.2507,0.249,0.2536,0.2584,0.2597,0.2434,0.2433,0.2433,0.2432,0,0,0.2183,0.2258,0.2256,0.228,0.2332,0.2346,0.2392,0.243,0.2468,0.2496,0.2549,0.2558,0.2572,0.2576,0.2567,0.2591,0.2664,0.2577,0.2578,0.2628,0.2764,0.2704,0.2712,0.2653,0.2655,0.2656,0.2782,0,0.2183,0.2237,0.2274,0.2313,0.2337,0.2379,0.2419,0.2462,0.2509,0.2567,0.2586,0.2631,0.2601,0.2624,0.2645,0.266,0.2697,0.2634,0.2711,0.2714,0.2655,0.2724,0.2525,0.2614,0.2794,0.2796,0.2798,0,0.217,0.2219,0.2262,0.2336,0.2347,0.2376,0.2457,0.2495,0.2579,0.2621,0.2681,0.2708,0.2763,0.2723,0.2795,0.276,0.2773,0.2778,0.2782,0.2719,0.2676,0.2594,0.263,0.2819,0.2817,0.2815,0.2814,0,0.213,0.2199,0.2244,0.2267,0.235,0.2381,0.2427,0.2511,0.2552,0.2669,0.2718,0.2795,0.2836,0.2871,0.2884,0.2858,0.2956,0.292,0.2883,0.288,0.2721,0.2699,0.2975,0.2975,0.2975,0.2974,0.2974,0,0.2113,0.2136,0.223,0.2248,0.2295,0.2365,0.2423,0.2488,0.2586,0.2638,0.2739,0.2793,0.2873,0.293,0.2936,0.2957,0.3006,0.2915,0.2912,0.2732,0.2711,0.2885,0.2872,0.2979,0.2978,0.2977,0.2976,0,0.2044,0.2111,0.2155,0.2247,0.2275,0.2305,0.2398,0.2443,0.2551,0.263,0.2672,0.2814,0.2904,0.2966,0.304,0.3015,0.3043,0.3029,0.2823,0.2793,0.2939,0.2928,0.3034,0.3033,0.3032,0.3031,0.3031,0,0.2018,0.2038,0.2128,0.2153,0.2191,0.2251,0.229,0.2407,0.2463,0.2619,0.2651,0.2789,0.2854,0.2968,0.2983,0.3028,0.304,0.2844,0.2744,0.2961,0.2948,0.2938,0.2928,0.2567,0.2563,0.2559,0.2556,0,0.1954,0.1985,0.2021,0.2073,0.2117,0.216,0.2234,0.2267,0.2402,0.2474,0.2574,0.2645,0.2792,0.2766,0.2841,0.2823,0.2826,0.2773,0.3065,0.2571,0.2527,0.2512,0.2516,0.2525,0.2528,0.253,0.2532,0.2533,0.1891,0.1895,0.1942,0.1979,0.2025,0.2048,0.2053,0.214,0.2192,0.2281,0.2415,0.2464,0.2559,0.2581,0.253,0.2513,0.2693,0.2575,0.2584,0.2597,0.2508,0.2463,0.2435,0.2437,0.2439,0.2441,0.2443,0,0.1797,0.1817,0.1847,0.1879,0.188,0.1945,0.1994,0.1986,0.2005,0.213,0.2199,0.209,0.2115,0.2197,0.2142,0.2171,0.2125,0.2072,0.199,0.2026,0.2057,0.1936,0.1714,0.1711,0.1708,0.1706,0,0,0.175,0.1737,0.1752,0.1722,0.1747,0.1721,0.1727,0.1736,0.1804,0.1805,0.1837,0.2027,0.2151,0.1893,0.189,0.179,0.1881,0.1726,0.2323,0.2264,0.229,0.2376,0.2235,0,0,0,0,0]},{"header":{"parameterUnit":"m.s-1","parameterCategory":2,"la1":30.2991,"la2":30.254,"lo1":-89.0895,"lo2":-89.0444,"dy":0.0017,"dx":0.0017,"nx":28,"ny":28,"refTime":"2023-11-11T09:00:00:Z","depth":"2","parameterNumber":3,"parameterNumberName":"V-component_of_CURRENTS"},"data":[0,0,0,0,0,0,0,0,0,0,0,0,0,0,0,0,0,0,0,0,0,0,0,0,0,0,0,0,0,0,0,0,0,0,0,0,0,0,0,0,0,0,0,0,0,0,0,0,0,0,0,0,0,0,0,0,0,0,-0.0051,-0.0051,0,-0.0121,-0.0122,-0.0123,-0.0185,-0.0186,-0.0186,-0.0187,-0.0308,-0.0311,-0.0313,0,0,0,0,0,0,0,0,0,0,0,0,0,0.0024,0.0023,-0.0051,-0.0051,-0.0052,-0.012,-0.0122,-0.0123,-0.0185,-0.0186,-0.0187,-0.0187,-0.0307,-0.031,-0.0314,0,0,0,0,0,0,0,0,0,0,0,0,0,-0.0025,0.0023,-0.0051,-0.009,-0.0094,-0.012,-0.0122,-0.0123,-0.0185,-0.0186,-0.0187,-0.0188,-0.0306,-0.031,-0.0314,-0.0323,0,0,-0.0326,-0.0328,0,0,0,0,0,0,0,0,-0.0022,-0.0028,-0.0083,-0.0087,-0.0092,-0.0143,-0.0139,-0.0192,-0.0185,-0.0153,-0.0187,-0.0188,-0.0256,-0.0264,-0.0278,-0.0328,-0.0333,-0.0327,-0.0329,-0.0331,-0.0332,0,0,0,0,0,0,0,-0.0019,-0.0025,-0.0081,-0.0084,-0.0089,-0.0105,-0.0114,-0.015,-0.0201,-0.0156,-0.016,-0.0164,-0.0259,-0.0273,-0.0281,-0.0335,-0.0327,-0.033,-0.0333,-0.0334,-0.0422,-0.0422,0,0,0,0,0,0,-0.0005,-0.0022,-0.0078,-0.0082,-0.0056,-0.0106,-0.0115,-0.0128,-0.02,-0.0211,-0.0163,-0.0167,-0.0266,-0.0276,-0.0285,-0.0315,-0.0331,-0.0335,-0.0337,-0.0422,-0.0422,-0.0422,0,0,0,0,0,0,-0.0003,-0.0009,-0.0075,-0.0052,-0.0061,-0.0106,-0.012,-0.0129,-0.0144,-0.0205,-0.0217,-0.0169,-0.0267,-0.028,-0.0311,-0.032,-0.0337,-0.034,-0.0422,-0.0422,-0.0422,-0.0364,0,0,0,0,0,0,-0.0001,-0.0009,-0.0016,-0.0051,-0.0062,-0.008,-0.0119,-0.0129,-0.0144,-0.015,-0.0214,-0.0226,-0.0269,-0.0304,-0.0315,-0.0325,-0.0343,-0.0423,-0.0422,-0.0422,-0.0366,-0.0362,-0.0358,0,0,0,0,0,0.0002,-0.0002,-0.0016,-0.0022,-0.0069,-0.0078,-0.0085,-0.0122,-0.0143,-0.0141,-0.0186,-0.0224,-0.0311,-0.0307,-0.032,-0.0332,-0.0423,-0.0422,-0.0422,-0.0368,-0.0363,-0.0359,0,0,0,0,0,0,0.0019,-0.001,-0.0025,-0.0041,-0.0052,-0.0088,-0.0096,-0.0114,-0.0148,-0.0162,-0.0217,-0.0232,-0.0265,-0.03,-0.0294,-0.0356,-0.0376,-0.0378,-0.033,-0.0326,-0.0322,-0.0305,-0.0347,0,0,0,0,0,0.0023,0.0013,-0.0009,-0.0022,-0.0026,-0.0058,-0.0069,-0.0089,-0.0121,-0.0137,-0.0188,-0.0238,-0.0273,-0.0299,-0.0339,-0.0367,-0.0387,-0.0385,-0.0381,-0.0377,-0.0372,-0.0392,-0.0389,-0.0421,-0.0421,-0.0421,0,0,0.0035,0.0008,0.0009,-0.0018,-0.0037,-0.0037,-0.0068,-0.008,-0.0085,-0.0146,-0.0182,-0.0225,-0.0276,-0.031,-0.0329,-0.0342,-0.0379,-0.0377,-0.0374,-0.037,-0.0391,-0.0388,-0.0385,-0.0421,-0.0421,-0.0421,0,0,0.0052,0.0022,0.0028,0.0019,-0.0003,-0.0023,-0.002,-0.0055,-0.0076,-0.0104,-0.0151,-0.019,-0.0256,-0.0291,-0.0316,-0.0312,-0.0354,-0.0333,-0.0307,-0.0325,-0.0323,-0.032,-0.0339,-0.0339,-0.0336,-0.0336,-0.0335,0,0.0067,0.0057,0.0031,0.003,0.0025,-0.0011,0.0001,-0.0022,-0.0066,-0.008,-0.011,-0.02,-0.0246,-0.0275,-0.028,-0.0303,-0.032,-0.0319,-0.0319,-0.0317,-0.0316,-0.0336,-0.0336,-0.0333,-0.0333,-0.0333,-0.0334,0,0.0093,0.0085,0.0085,0.007,0.0065,0.0065,0.004,0.0024,-0.0015,-0.0045,-0.0088,-0.0151,-0.0202,-0.0228,-0.0256,-0.0273,-0.0289,-0.0306,-0.0326,-0.0309,-0.0331,-0.0333,-0.0329,-0.033,-0.0331,-0.0331,0,0,0.0142,0.0111,0.0116,0.0117,0.0085,0.009,0.0077,0.0063,0.0064,-0.0005,-0.0015,-0.0092,-0.0133,-0.0162,-0.0208,-0.0234,-0.0243,-0.0265,-0.0267,-0.0275,-0.0283,-0.0292,-0.0295,-0.0259,-0.0259,-0.0259,-0.0302,0,0.0175,0.0183,0.0157,0.0176,0.0183,0.0148,0.0147,0.0125,0.009,0.0067,-0.0006,-0.0039,-0.0105,-0.0125,-0.0163,-0.0218,-0.0245,-0.023,-0.0306,-0.0309,-0.0311,-0.0296,-0.0269,-0.0305,-0.0304,-0.0304,-0.0304,0,0.0218,0.0216,0.0236,0.0231,0.0234,0.0238,0.0235,0.0231,0.019,0.0162,0.0105,0.0045,-0.0012,-0.0063,-0.0159,-0.0146,-0.0208,-0.0257,-0.026,-0.0289,-0.032,-0.0324,-0.0308,-0.0307,-0.0307,-0.0307,-0.0307,0,0.0275,0.0275,0.029,0.0289,0.0278,0.0286,0.0282,0.0258,0.0271,0.0224,0.0221,0.0128,0.0096,-0.0001,-0.0118,-0.0135,-0.0213,-0.025,-0.0319,-0.032,-0.0323,-0.0325,-0.0309,-0.0309,-0.0308,-0.0308,-0.0308,0,0.0316,0.0336,0.032,0.0335,0.0368,0.0344,0.0379,0.0362,0.0356,0.0381,0.0278,0.0279,0.0113,0.0038,-0.0081,-0.0199,-0.0187,-0.0308,-0.0329,-0.0303,-0.0302,-0.0327,-0.0329,-0.031,-0.031,-0.0309,-0.0309,0,0.0373,0.0357,0.0385,0.0387,0.0393,0.0422,0.0448,0.048,0.0462,0.0494,0.0484,0.0401,0.0302,0.0137,-0.0012,-0.0134,-0.0255,-0.0298,-0.0258,-0.0274,-0.0363,-0.0361,-0.0387,-0.0388,-0.0388,-0.0389,-0.0389,0,0.0396,0.0414,0.0434,0.046,0.0462,0.0499,0.0532,0.0531,0.0572,0.0577,0.0605,0.0517,0.0467,0.0238,0.0012,-0.0199,-0.0232,-0.0312,-0.0348,-0.0351,-0.0369,-0.0367,-0.0364,-0.0331,-0.0331,-0.0331,-0.0331,0,0.045,0.0456,0.0479,0.0531,0.0569,0.0619,0.0666,0.0716,0.073,0.0757,0.0788,0.0751,0.0527,0.0319,0.0024,-0.0121,-0.0283,-0.0316,-0.032,-0.0314,-0.0301,-0.0318,-0.0317,-0.033,-0.033,-0.033,-0.033,-0.033,0.0493,0.052,0.0551,0.0602,0.0655,0.073,0.0783,0.0842,0.0914,0.0959,0.093,0.0889,0.0644,0.0275,0.0013,-0.0269,-0.0266,-0.0364,-0.0364,-0.0363,-0.0347,-0.0336,-0.0368,-0.0369,-0.0369,-0.0369,-0.0369,0,0.0539,0.0566,0.062,0.0681,0.0752,0.0768,0.0868,0.0925,0.1014,0.1055,0.1069,0.0864,0.0623,0.0342,-0.0071,-0.0322,-0.0351,-0.04,-0.0376,-0.0375,-0.0374,-0.0359,-0.0383,-0.0384,-0.0385,-0.0386,0,0,0.0562,0.0616,0.064,0.075,0.0802,0.0899,0.096,0.104,0.1095,0.1134,0.1119,0.1066,0.0729,0.0436,0.0093,-0.0145,-0.0208,-0.0197,-0.0158,-0.0089,-0.0086,-0.0324,-0.0295,0,0,0,0,0]}],[{"header":{"parameterUnit":"m.s-1","parameterCategory":2,"la1":30.2991,"la2":30.254,"lo1":-89.0895,"lo2":-89.0444,"dy":0.0017,"dx":0.0017,"nx":28,"ny":28,"refTime":"2023-11-11T09:00:00:Z","depth":"4","parameterNumber":2,"parameterNumberName":"U-component_of_CURRENTS"},"data":[0,0,0,0,0,0,0,0,0,0,0,0,0,0,0,0,0,0,0,0,0,0,0,0,0,0,0,0,0,0,0,0,0,0,0,0,0,0,0,0,0,0,0,0,0,0,0,0,0,0,0,0,0,0,0,0,0,0,0.1116,0.1117,0,0.1171,0.1171,0.1171,0.1204,0.1205,0.1206,0.1207,0.1332,0.1334,0.1337,0,0,0,0,0,0,0,0,0,0,0,0,0,0.1064,0.1064,0.1115,0.1117,0.1118,0.1171,0.1171,0.1171,0.1204,0.1205,0.1206,0.1207,0.1331,0.1334,0.1337,0,0,0,0,0,0,0,0,0,0,0,0,0,0.1093,0.1064,0.1115,0.1146,0.115,0.1171,0.1171,0.1171,0.1204,0.1205,0.1206,0.1208,0.133,0.1334,0.1338,0.1338,0,0,0.135,0.1351,0,0,0,0,0,0,0,0,0.1091,0.1094,0.114,0.1144,0.1148,0.1188,0.1199,0.1233,0.1204,0.1176,0.1207,0.1208,0.1294,0.1301,0.1298,0.1344,0.135,0.135,0.1352,0.1354,0.1355,0,0,0,0,0,0,0,0.1089,0.1092,0.1131,0.1142,0.1147,0.1166,0.117,0.1205,0.1224,0.1179,0.1183,0.12,0.1296,0.1294,0.1301,0.1351,0.135,0.1353,0.1356,0.1357,0.1461,0.1462,0,0,0,0,0,0,0.1093,0.109,0.1129,0.1133,0.113,0.1166,0.1171,0.1168,0.1222,0.1233,0.1199,0.1201,0.1287,0.1297,0.1306,0.1405,0.1354,0.1358,0.136,0.1461,0.1461,0.1462,0,0,0,0,0,0,0.1091,0.1095,0.1127,0.1119,0.1126,0.1167,0.1163,0.1169,0.1203,0.1238,0.1248,0.1232,0.1288,0.1301,0.137,0.1407,0.1359,0.1363,0.146,0.1461,0.1462,0.1542,0,0,0,0,0,0,0.1089,0.1093,0.1103,0.1119,0.1126,0.1159,0.1163,0.117,0.1213,0.1217,0.1269,0.128,0.129,0.1364,0.1374,0.1411,0.1366,0.146,0.1461,0.1461,0.1539,0.1545,0.1551,0,0,0,0,0,0.1087,0.1093,0.1103,0.1109,0.1134,0.1161,0.1166,0.1195,0.1214,0.1229,0.1273,0.128,0.1374,0.1368,0.1379,0.1419,0.1459,0.146,0.1461,0.1536,0.1544,0.1551,0,0,0,0,0,0,0.1081,0.1098,0.1109,0.1122,0.1151,0.117,0.1197,0.1214,0.1256,0.1277,0.1301,0.1315,0.1381,0.1383,0.1375,0.1444,0.1412,0.1415,0.1465,0.1472,0.1478,0.1483,0.1369,0,0,0,0,0,0.1083,0.1091,0.1115,0.1132,0.115,0.1179,0.12,0.1221,0.1257,0.1278,0.1313,0.1349,0.1384,0.1419,0.144,0.1496,0.1497,0.1519,0.1525,0.153,0.1538,0.1571,0.1581,0.1465,0.1465,0.1465,0,0,0.1089,0.11,0.1108,0.1132,0.1159,0.1187,0.1194,0.1238,0.1265,0.1287,0.1346,0.1377,0.1401,0.1455,0.1484,0.1473,0.1563,0.1531,0.1536,0.1541,0.1573,0.1585,0.1595,0.1466,0.1465,0.1465,0,0,0.1101,0.1116,0.1128,0.1157,0.1205,0.1217,0.1238,0.1276,0.13,0.1357,0.1377,0.1437,0.1486,0.1515,0.1534,0.1586,0.1589,0.1587,0.164,0.1672,0.1683,0.1692,0.1711,0.1722,0.1598,0.1598,0.1598,0,0.1113,0.1125,0.1141,0.117,0.1202,0.1235,0.1267,0.1291,0.1347,0.1383,0.1387,0.1474,0.1511,0.1576,0.1604,0.1605,0.1617,0.1618,0.1683,0.1692,0.1701,0.1718,0.1728,0.1602,0.1601,0.1601,0.1601,0,0.1131,0.1158,0.1177,0.1214,0.1245,0.1284,0.132,0.1356,0.1394,0.1431,0.1507,0.1544,0.1603,0.1618,0.1643,0.1717,0.1704,0.1685,0.1673,0.1718,0.1732,0.1742,0.1608,0.1606,0.1605,0.1604,0,0,0.1121,0.1174,0.119,0.1215,0.1276,0.1299,0.135,0.1406,0.1456,0.1507,0.1566,0.1645,0.1684,0.1706,0.1731,0.177,0.1858,0.1771,0.1771,0.1803,0.193,0.1822,0.1821,0.1859,0.1861,0.1863,0.1919,0,0.1139,0.1182,0.1211,0.127,0.1295,0.1345,0.1391,0.1454,0.1505,0.1569,0.1621,0.1694,0.1708,0.1756,0.18,0.1859,0.1886,0.1844,0.1869,0.187,0.1779,0.183,0.1869,0.1926,0.1928,0.193,0.1931,0,0.1154,0.1177,0.1225,0.1293,0.1315,0.1363,0.1444,0.1492,0.1589,0.1635,0.1709,0.1753,0.1857,0.1829,0.1942,0.1921,0.1936,0.1949,0.1951,0.1828,0.1778,0.1868,0.1948,0.1946,0.1945,0.1944,0.1943,0,0.1125,0.1194,0.1226,0.1254,0.133,0.1379,0.1436,0.1534,0.1583,0.1691,0.1742,0.1842,0.1902,0.1951,0.2012,0.1998,0.2091,0.2067,0.196,0.1952,0.1999,0.1988,0.2099,0.2099,0.2098,0.2098,0.2098,0,0.1121,0.1156,0.1225,0.1248,0.1312,0.1383,0.1469,0.1535,0.1634,0.1706,0.1792,0.1839,0.1938,0.1999,0.2034,0.204,0.2114,0.1979,0.1964,0.2029,0.2021,0.2006,0.1994,0.21,0.21,0.2099,0.2099,0,0.1089,0.113,0.1173,0.1261,0.1299,0.1355,0.1481,0.1536,0.1644,0.1726,0.1769,0.1877,0.1976,0.203,0.211,0.2058,0.2078,0.2036,0.211,0.2096,0.191,0.1902,0.1946,0.1942,0.194,0.1937,0.1935,0,0.1068,0.1084,0.1174,0.1204,0.1255,0.1345,0.1408,0.1529,0.1581,0.1736,0.1763,0.1884,0.1947,0.197,0.204,0.2071,0.203,0.2009,0.1953,0.1915,0.1897,0.1893,0.1889,0.1931,0.193,0.193,0.1929,0,0.1025,0.1069,0.1105,0.1169,0.1236,0.1293,0.1395,0.142,0.1557,0.166,0.1729,0.1776,0.1854,0.1913,0.1928,0.1945,0.2024,0.1979,0.1984,0.1932,0.1898,0.1882,0.1881,0.1919,0.1921,0.1922,0.1922,0,0.1001,0.1017,0.1072,0.1125,0.1196,0.1231,0.1287,0.1358,0.1426,0.1588,0.1612,0.174,0.1844,0.1847,0.1882,0.1883,0.1855,0.1781,0.1796,0.1807,0.1734,0.1669,0.1618,0,0,0,0,0,0.0968,0.0979,0.1021,0.1072,0.1138,0.1181,0.1271,0.1324,0.145,0.1464,0.1534,0.1607,0.1665,0.1727,0.1702,0.1819,0.1857,0.178,0.1776,0.1866,0.1877,0.1804,0,0,0,0,0,0,0.0942,0.0978,0.0998,0.1019,0.1044,0.111,0.1161,0.124,0.125,0.138,0.1422,0.1518,0.1597,0.1675,0.1679,0.1695,0.166,0.1859,0.1854,0.186,0.187,0.1879,0.1807,0,0,0,0,0]},{"header":{"parameterUnit":"m.s-1","parameterCategory":2,"la1":30.2991,"la2":30.254,"lo1":-89.0895,"lo2":-89.0444,"dy":0.0017,"dx":0.0017,"nx":28,"ny":28,"refTime":"2023-11-11T09:00:00:Z","depth":"4","parameterNumber":3,"parameterNumberName":"V-component_of_CURRENTS"},"data":[0,0,0,0,0,0,0,0,0,0,0,0,0,0,0,0,0,0,0,0,0,0,0,0,0,0,0,0,0,0,0,0,0,0,0,0,0,0,0,0,0,0,0,0,0,0,0,0,0,0,0,0,0,0,0,0,0,0,0.0272,0.0271,0,0.0249,0.0248,0.0248,0.0249,0.0249,0.025,0.025,0.0214,0.0213,0.0212,0,0,0,0,0,0,0,0,0,0,0,0,0,0.0289,0.0289,0.0272,0.0271,0.0271,0.0249,0.0248,0.0248,0.0249,0.0249,0.025,0.025,0.0214,0.0213,0.0212,0,0,0,0,0,0,0,0,0,0,0,0,0,0.0277,0.0289,0.0272,0.0267,0.0266,0.0249,0.0248,0.0248,0.0249,0.0249,0.025,0.025,0.0215,0.0213,0.0212,0.0197,0,0,0.0207,0.0206,0,0,0,0,0,0,0,0,0.0278,0.0277,0.0268,0.0267,0.0267,0.025,0.0241,0.023,0.0249,0.0258,0.025,0.025,0.0224,0.0221,0.0219,0.0195,0.0194,0.0207,0.0206,0.0205,0.0204,0,0,0,0,0,0,0,0.0279,0.0278,0.0265,0.0268,0.0267,0.0257,0.0256,0.0239,0.0241,0.0257,0.0257,0.0251,0.0223,0.0221,0.0218,0.0193,0.0207,0.0205,0.0204,0.0204,0.0174,0.0174,0,0,0,0,0,0,0.0279,0.0279,0.0265,0.0264,0.0271,0.0256,0.0255,0.0257,0.0241,0.0239,0.0251,0.0251,0.0224,0.022,0.0217,0.0197,0.0205,0.0203,0.0202,0.0174,0.0174,0.0174,0,0,0,0,0,0,0.028,0.0279,0.0266,0.0269,0.0266,0.0256,0.0258,0.0256,0.0258,0.0236,0.0234,0.0253,0.0224,0.0219,0.0202,0.0196,0.0203,0.0201,0.0173,0.0174,0.0174,0.0158,0,0,0,0,0,0,0.0281,0.0279,0.029,0.0269,0.0266,0.0259,0.0257,0.0256,0.0252,0.0253,0.0238,0.0235,0.0224,0.0204,0.02,0.0194,0.02,0.0173,0.0173,0.0174,0.0159,0.0158,0.0158,0,0,0,0,0,0.0281,0.0294,0.0291,0.0289,0.0278,0.0259,0.0257,0.0251,0.0252,0.0254,0.024,0.0235,0.0204,0.0203,0.0198,0.0191,0.0173,0.0173,0.0174,0.0159,0.0158,0.0158,0,0,0,0,0,0,0.0304,0.0294,0.0291,0.0299,0.0281,0.0259,0.026,0.0254,0.0245,0.0246,0.0229,0.0225,0.0208,0.0205,0.0204,0.0187,0.0191,0.0191,0.0182,0.0181,0.018,0.0194,0.0199,0,0,0,0,0,0.0313,0.0323,0.0301,0.0307,0.0298,0.028,0.0275,0.0267,0.0251,0.0248,0.0238,0.0227,0.0205,0.0198,0.0185,0.0171,0.0155,0.0168,0.0167,0.0167,0.0176,0.0134,0.013,0.0175,0.0175,0.0175,0,0,0.0318,0.0319,0.0321,0.0313,0.0299,0.0292,0.0278,0.0268,0.0265,0.0244,0.0244,0.0222,0.0202,0.0184,0.0178,0.0181,0.0146,0.0167,0.0167,0.0177,0.0134,0.013,0.0126,0.0176,0.0176,0.0175,0,0,0.0329,0.0335,0.0341,0.0332,0.0316,0.0305,0.0303,0.0283,0.0278,0.0268,0.0248,0.0222,0.0209,0.0183,0.0168,0.0159,0.0142,0.0162,0.0168,0.0127,0.0122,0.0118,0.0087,0.008,0.0163,0.0163,0.0163,0,0.0337,0.0346,0.0337,0.0337,0.0335,0.0313,0.0312,0.0299,0.028,0.0273,0.0272,0.0229,0.0207,0.0168,0.0165,0.0156,0.0136,0.0167,0.0124,0.012,0.0116,0.0085,0.0077,0.0163,0.0163,0.0163,0.0163,0,0.0342,0.0354,0.0354,0.0355,0.035,0.0346,0.0325,0.032,0.0315,0.0301,0.0271,0.0232,0.0211,0.0191,0.0174,0.0134,0.013,0.0123,0.0121,0.011,0.0078,0.0071,0.0162,0.0162,0.0162,0.0162,0,0,0.0351,0.0358,0.0361,0.037,0.0363,0.0359,0.0352,0.0338,0.0337,0.0309,0.03,0.0244,0.0226,0.0209,0.0173,0.0132,0.0076,0.012,0.0118,0.0083,-0.001,-0.0014,-0.0022,0.0057,0.0056,0.0055,-0.0023,0,0.0358,0.0376,0.0375,0.0391,0.0396,0.0383,0.0382,0.0367,0.0355,0.0343,0.0286,0.0268,0.0231,0.0218,0.0167,0.0102,0.0058,0.0099,0.0014,0.0012,0.0003,-0.0031,0.0051,-0.0029,-0.003,-0.0032,-0.0032,0,0.0364,0.0382,0.0402,0.042,0.0419,0.0427,0.0431,0.0426,0.0395,0.0383,0.0346,0.0313,0.0245,0.0223,0.01,0.0128,0.0065,0.0011,0.0006,0.0007,-0.0006,-0.0012,-0.0046,-0.0045,-0.0044,-0.0043,-0.0042,0,0.0383,0.0401,0.0428,0.0432,0.0443,0.0453,0.0458,0.0443,0.0447,0.0415,0.0413,0.0331,0.0297,0.02,0.0094,0.0096,-0.0038,-0.0049,-0.0114,-0.0115,-0.0081,-0.0076,-0.0132,-0.0132,-0.0132,-0.0132,-0.0132,0,0.0397,0.0417,0.0444,0.0457,0.049,0.0486,0.0513,0.0501,0.0494,0.05,0.0441,0.042,0.029,0.0203,0.0102,-0.0029,-0.0034,-0.0118,-0.014,-0.0085,-0.0079,-0.0087,-0.008,-0.0135,-0.0134,-0.0133,-0.0133,0,0.0411,0.0426,0.046,0.0488,0.0502,0.0528,0.0561,0.0574,0.0561,0.0567,0.0561,0.0481,0.0365,0.0232,0.0073,-0.0013,-0.0138,-0.0181,-0.0106,-0.0122,-0.0189,-0.0183,-0.0265,-0.0266,-0.0267,-0.0267,-0.0268,0,0.0419,0.0441,0.0491,0.0518,0.0537,0.0577,0.0603,0.0609,0.0626,0.0602,0.0602,0.0508,0.0438,0.0213,0.0066,-0.0133,-0.016,-0.0224,-0.0217,-0.0192,-0.0205,-0.0197,-0.019,-0.0269,-0.0269,-0.0269,-0.027,0,0.0437,0.0459,0.0488,0.0547,0.0589,0.0632,0.0671,0.0687,0.069,0.0684,0.0638,0.0527,0.0393,0.0218,0.0063,-0.008,-0.0185,-0.0233,-0.0232,-0.0226,-0.0198,-0.0209,-0.02,-0.0272,-0.0272,-0.0272,-0.0272,0,0.0453,0.0476,0.0518,0.0567,0.0624,0.0666,0.0686,0.0702,0.0716,0.0694,0.0677,0.0539,0.0461,0.0245,0.0101,-0.0041,-0.0079,-0.0124,-0.013,-0.0129,-0.0069,-0.0013,-0.0055,0,0,0,0,0,0.0461,0.0481,0.053,0.0581,0.0639,0.067,0.0719,0.0732,0.0743,0.072,0.0702,0.0583,0.0368,0.0273,0.013,0.0072,-0.0114,-0.0102,-0.0171,-0.0287,-0.0284,-0.0238,0,0,0,0,0,0,0.0462,0.0506,0.0525,0.0585,0.0622,0.0683,0.0715,0.0724,0.0711,0.0704,0.0594,0.0545,0.0337,0.0453,0.0128,0.0084,0.0019,-0.0199,-0.0203,-0.0289,-0.0286,-0.0283,-0.0235,0,0,0,0,0]}]]